Regional Weather Roundup
Issued by NWS Kansas City/Pleasant Hill, MO

Home | Current Version | Previous Version | Text Only | Print | Product List | Glossary On
Versions: 1 2 3 4 5 6 7 8 9 10 11 12 13 14 15 16 17 18 19 20 21 22 23 24 25 26 27 28 29 30 31 32 33 34 35 36 37 38 39 40 41 42 43 44 45 46 47 48 49 50
000
ASUS43 KEAX 291711
RWREAX

WEATHER ROUNDUP FOR EASTERN KANSAS AND NORTHWEST MISSOURI
NATIONAL WEATHER SERVICE KANSAS CITY/PLEASANT HILL MO
1200 PM CDT TUE JUL 29 2014

KSZ040-057-103>105-MOZ028-029-037-043-291800-
...KANSAS CITY METROPOLITAN AREA...

CITY           SKY/WX    TMP DP  RH WIND       PRES   REMARKS
K.C. INTL      PTSUNNY   78  60  53 NW6       30.20R
K.C. DOWNTOWN  MOSUNNY   79  57  46 NW8       30.18S
LEES SUMMIT    MOSUNNY   75  56  51 CALM      30.19S
OLATHE - IXD   MOSUNNY   79  57  46 NW9       30.20S
OLATHE - OJC   PTSUNNY   78  57  48 VRB3      30.19S
LAWRENCE       MOSUNNY   81  56  42 NW10      30.19S

$$

MOZ001>008-011>017-020>025-030>033-038>040-044>046-053-054-291800-
...NORTHERN AND CENTRAL MISSOURI...

CITY           SKY/WX    TMP DP  RH WIND       PRES   REMARKS
ST. JOSEPH     MOSUNNY   77  61  57 N7        30.20S
MOSBY          PTSUNNY   73  57  56 W5        30.19S
WHITEMAN AFB   MOSUNNY   77  47  35 SW7       30.17S
CLINTON        MOSUNNY   79  61  53 W6        30.19S
SEDALIA        MOSUNNY   78  58  49 W5        30.19S
WARSAW         NOT AVBL
MARSHALL       MOSUNNY   79  63  57 W7        30.18F
CHILLICOTHE      N/A     78  57  48 CALM      30.19S
MOBERLY        PTSUNNY   75  55  50 NW3       30.18F
KIRKSVILLE     MOSUNNY   75  54  47 NW7       30.18F

$$

MOZ041-047>049-056>058-063>065-088>090-097-291800-
...EASTERN AND SOUTHERN MISSOURI...

CITY           SKY/WX    TMP DP  RH WIND       PRES   REMARKS
ST. LOUIS INTL MOSUNNY   77  54  44 NW7       30.16S
SPIRIT OF STL  PTSUNNY   77  53  43 NW8       30.15S
COLUMBIA       MOSUNNY   78  56  46 NW9       30.18S
JEFFERSON CITY MOSUNNY   75  56  51 NW5       30.16F
HANNIBAL       PTSUNNY   75  54  46 NW7       30.16F
ROLLA          MOSUNNY   76  52  43 N7        30.16F
LEBANON        SUNNY     77  54  44 N6        30.19F
OSAGE BEACH    MOSUNNY   77  55  47 W7        30.18S
SPRINGFIELD    MOSUNNY   78  54  43 CALM      30.19F
BRANSON        MOSUNNY   82  52  34 NW7       30.20F
NEVADA         PTSUNNY   79  59  50 CALM      30.20S
JOPLIN         SUNNY     80  56  43 VRB6      30.19F
WEST PLAINS    MOSUNNY   77  53  43 E6        30.19F
MALDEN         SUNNY     75  52  43 N5        30.16F

$$

IAZ060-094-KSZ022-034>040-054-083-096-NEZ052-066-093-291800-
...KANSAS...SOUTHEAST NEBRASKA AND IOWA...

CITY           SKY/WX    TMP DP  RH WIND       PRES   REMARKS
TOPEKA         CLOUDY    80  57  45 NW3       30.20S
MANHATTAN      LGT RAIN  69  61  75 W5        30.22S
EMPORIA        PTSUNNY   73  59  61 N6        30.22R
CHANUTE        PTSUNNY   77  60  55 CALM      30.20S
WICHITA        MOSUNNY   83  60  45 SE6       30.18F
OMAHA          PTSUNNY   76  56  49 N8        30.21S
LINCOLN        PTSUNNY   80  53  39 MISG      30.22F
FALLS CITY     MOSUNNY   78  58  49 VRB5      30.19F
LAMONI         MOSUNNY   75  54  47 NW7       30.19S
DES MOINES     MOSUNNY   78  55  44 NW12      30.17S

$$




USA.gov is the U.S. government's official web portal to all federal, state and local government web resources and services.